This demonstration page uses our WeatherBlox Daily Observations layout. Learn more.

Hourly Observations for March 16, 2019

Temp ( °F °C ) Dew Point ( °F °C ) Humidity (%) Winds ( mph kmh ) Pressure ( in mb ) Visibility ( mi km ) Precip ( " mm )
12:15 am 00:15 Clear 54 12 36 2 51 51 NW 17 28 29.94 1014 10 16.09344 0 0
12:35 am 00:35 Clear 54 12 36 2 51 51 NW 29 46 29.94 1014 10 16.09344 0 0
12:55 am 00:55 Clear 52 11 36 2 54 54 NW 16 26 29.94 1014 10 16.09344 0 0
1:15 am 01:15 Clear 52 11 36 2 54 54 NW 22 35 29.97 1015 10 16.09344 0 0
1:35 am 01:35 Clear 52 11 36 2 54 54 NW 23 37 29.97 1015 10 16.09344 0 0
1:55 am 01:55 Partly Cloudy 50 10 36 2 58 58 NW 16 26 29.97 1015 10 16.09344 0 0
2:15 am 02:15 Mostly Cloudy 50 10 36 2 58 58 NW 21 33 30 1016 10 16.09344 0 0
2:35 am 02:35 Partly Cloudy 48 9 36 2 62 62 NW 17 28 30.03 1017 10 16.09344 0 0
2:55 am 02:55 Mostly Cloudy 46 8 37 3 71 71 NNW 17 28 30.06 1018 10 16.09344 0 0
3:15 am 03:15 Mostly Cloudy 46 8 36 2 66 66 NW 20 31 30.06 1018 10 16.09344 0 0
3:35 am 03:35 Partly Cloudy 46 8 34 1 62 62 NW 13 20 30.06 1018 10 16.09344 0 0
3:55 am 03:55 Clear 46 8 32 0 57 57 NW 22 35 30.03 1017 10 16.09344 0 0
4:15 am 04:15 Clear 45 7 32 0 61 61 WNW 17 28 30.03 1017 10 16.09344 0 0
4:35 am 04:35 Clear 45 7 32 0 61 61 NW 24 39 30.06 1018 10 16.09344 0 0
4:55 am 04:55 Clear 45 7 32 0 61 61 NW 17 28 30.06 1018 10 16.09344 0 0
5:15 am 05:15 Partly Cloudy 45 7 32 0 61 61 NW 16 26 30.06 1018 10 16.09344 0 0
5:35 am 05:35 Mostly Cloudy 45 7 32 0 61 61 NW 20 31 30.09 1019 10 16.09344 0 0
5:55 am 05:55 Partly Cloudy 45 7 32 0 61 61 NW 18 30 30.09 1019 10 16.09344 0 0
6:15 am 06:15 Mostly Cloudy 45 7 30 -1 57 57 WNW 21 33 30.12 1020 10 16.09344 0 0
6:35 am 06:35 Cloudy 45 7 30 -1 57 57 NW 29 46 30.12 1020 10 16.09344 0 0
6:55 am 06:55 Partly Cloudy 43 6 28 -2 57 57 WNW 20 31 30.12 1020 10 16.09344 0 0
7:15 am 07:15 Partly Cloudy 43 6 28 -2 57 57 NW 17 28 30.12 1020 10 16.09344 0 0
7:35 am 07:35 Partly Cloudy 43 6 28 -2 57 57 NW 15 24 30.15 1021 10 16.09344 0 0
7:55 am 07:55 Partly Cloudy 43 6 27 -3 53 53 NW 20 31 30.15 1021 10 16.09344 0 0
8:15 am 08:15 Partly Cloudy 43 6 27 -3 53 53 NW 15 24 30.18 1022 10 16.09344 0 0
8:35 am 08:35 Partly Cloudy 43 6 27 -3 53 53 NW 16 26 30.15 1021 10 16.09344 0 0
8:55 am 08:55 Partly Cloudy 45 7 27 -3 49 49 NW 21 33 30.18 1022 10 16.09344 0 0
9:15 am 09:15 Partly Cloudy 45 7 27 -3 49 49 NW 25 41 30.18 1022 10 16.09344 0 0
9:35 am 09:35 Partly Cloudy 45 7 27 -3 49 49 NW 21 33 30.18 1022 10 16.09344 0 0
9:55 am 09:55 Sunny 45 7 25 -4 46 46 NNW 31 50 30.18 1022 10 16.09344 0 0
10:15 am 10:15 Sunny 46 8 27 -3 46 46 NW 17 28 30.18 1022 10 16.09344 0 0
10:35 am 10:35 Sunny 46 8 27 -3 46 46 NW 21 33 30.18 1022 10 16.09344 0 0
10:55 am 10:55 Partly Cloudy 46 8 25 -4 43 43 NNW 17 28 30.21 1023 10 16.09344 0 0
11:15 am 11:15 Sunny 46 8 27 -3 46 46 NW 21 33 30.18 1022 10 16.09344 0 0
11:35 am 11:35 Sunny 48 9 27 -3 43 43 WNW 23 37 30.18 1022 10 16.09344 0 0
11:55 am 11:55 Sunny 48 9 27 -3 43 43 WNW 18 30 30.18 1022 10 16.09344 0 0
12:15 pm 12:15 Partly Cloudy 50 10 27 -3 40 40 NNW 23 37 30.18 1022 10 16.09344 0 0
12:35 pm 12:35 Sunny 50 10 27 -3 40 40 WNW 20 31 30.18 1022 10 16.09344 0 0
12:55 pm 12:55 Sunny 50 10 28 -2 43 43 NW 18 30 30.18 1022 10 16.09344 0 0
1:15 pm 13:15 Sunny 52 11 27 -3 38 38 NW 17 28 30.15 1021 10 16.09344 0 0
1:35 pm 13:35 Partly Cloudy 52 11 27 -3 38 38 NW 17 28 30.15 1021 10 16.09344 0 0
1:55 pm 13:55 Partly Cloudy 52 11 27 -3 38 38 WNW 18 30 30.12 1020 10 16.09344 0 0
2:15 pm 14:15 Sunny 52 11 27 -3 38 38 WNW 17 28 30.12 1020 10 16.09344 0 0
2:35 pm 14:35 Partly Cloudy 54 12 28 -2 38 38 NW 16 26 30.12 1020 10 16.09344 0 0
2:55 pm 14:55 Partly Cloudy 54 12 27 -3 35 35 NW 18 30 30.12 1020 10 16.09344 0 0
3:15 pm 15:15 Sunny 54 12 28 -2 38 38 NW 16 26 30.12 1020 10 16.09344 0 0
3:35 pm 15:35 Sunny 54 12 28 -2 38 38 WNW 20 31 30.12 1020 10 16.09344 0 0
3:55 pm 15:55 Sunny 54 12 27 -3 35 35 NW 23 37 30.12 1020 10 16.09344 0 0
4:15 pm 16:15 Sunny 54 12 28 -2 38 38 NW 15 24 30.12 1020 10 16.09344 0 0
4:35 pm 16:35 Sunny 52 11 27 -3 38 38 N 16 26 30.12 1020 10 16.09344 0 0
4:55 pm 16:55 Sunny 52 11 27 -3 38 38 NNW 17 28 30.12 1020 10 16.09344 0 0
5:15 pm 17:15 Sunny 52 11 27 -3 38 38 NW 17 28 30.12 1020 10 16.09344 0 0
5:35 pm 17:35 Sunny 52 11 27 -3 38 38 NNW 13 20 30.12 1020 10 16.09344 0 0
5:55 pm 17:55 Sunny 50 10 25 -4 37 37 NNW 23 37 30.15 1021 10 16.09344 0 0
6:15 pm 18:15 Sunny 50 10 25 -4 37 37 NNW 18 30 30.18 1022 10 16.09344 0 0
6:35 pm 18:35 Sunny 50 10 25 -4 37 37 NNW 16 26 30.18 1022 10 16.09344 0 0
6:55 pm 18:55 Sunny 48 9 25 -4 40 40 NNW 18 30 30.18 1022 10 16.09344 0 0
7:15 pm 19:15 Sunny 46 8 23 -5 40 40 NNW 15 24 30.21 1023 10 16.09344 0 0
7:35 pm 19:35 Clear 46 8 23 -5 40 40 N 10 17 30.21 1023 10 16.09344 0 0
7:55 pm 19:55 Clear 45 7 23 -5 42 42 NNW 18 30 30.21 1023 10 16.09344 0 0
8:15 pm 20:15 Clear 45 7 23 -5 42 42 N 15 24 30.21 1023 10 16.09344 0 0
8:35 pm 20:35 Clear 45 7 23 -5 42 42 NNW 13 20 30.24 1024 10 16.09344 0 0
8:55 pm 20:55 Clear 45 7 23 -5 42 42 NNW 16 26 30.24 1024 10 16.09344 0 0
9:15 pm 21:15 Clear 45 7 23 -5 42 42 N 9 15 30.24 1024 10 16.09344 0 0
9:35 pm 21:35 Clear 43 6 23 -5 46 46 N 9 15 30.24 1024 10 16.09344 0 0
9:55 pm 21:55 Clear 43 6 25 -4 49 49 N 13 20 30.24 1024 10 16.09344 0 0
10:15 pm 22:15 Clear 43 6 25 -4 49 49 N 10 17 30.27 1025 10 16.09344 0 0
10:35 pm 22:35 Clear 41 5 27 -3 57 57 NNW 13 20 30.27 1025 10 16.09344 0 0
10:55 pm 22:55 Clear 41 5 27 -3 57 57 NNW 15 24 30.24 1024 10 16.09344 0 0
11:15 pm 23:15 Clear 41 5 27 -3 57 57 NNW 14 22 30.27 1025 10 16.09344 0 0
11:35 pm 23:35 Clear 41 5 27 -3 57 57 N 7 11 30.27 1025 10 16.09344 0 0
11:55 pm 23:55 Clear 41 5 25 -4 53 53 N 7 11 30.27 1025 10 16.09344 0 0

Powered by AerisWeather